Year,Month,Day,Hour,Minute,Value (Times are PST for temperature in C)
2016,04,26,00,00,3.80
2016,04,26,00,01,3.80
2016,04,26,00,02,3.80
2016,04,26,00,03,3.80
2016,04,26,00,04,3.80
2016,04,26,00,05,3.70
2016,04,26,00,06,3.70
2016,04,26,00,07,3.70
2016,04,26,00,08,3.60
2016,04,26,00,09,3.60
2016,04,26,00,10,3.60
2016,04,26,00,11,3.60
2016,04,26,00,12,3.60
2016,04,26,00,13,3.60
2016,04,26,00,14,3.60
2016,04,26,00,15,3.60
2016,04,26,00,16,3.50
2016,04,26,00,17,3.50
2016,04,26,00,18,3.50
2016,04,26,00,19,3.50
2016,04,26,00,20,3.50
2016,04,26,00,21,3.60
2016,04,26,00,22,3.60
2016,04,26,00,23,3.60
2016,04,26,00,24,3.60
2016,04,26,00,25,3.60
2016,04,26,00,26,3.60
2016,04,26,00,27,3.60
2016,04,26,00,28,3.60
2016,04,26,00,29,3.60
2016,04,26,00,30,3.60
2016,04,26,00,31,3.60
2016,04,26,00,32,3.60
2016,04,26,00,33,3.60
2016,04,26,00,34,3.60
2016,04,26,00,35,3.60
2016,04,26,00,36,3.60
2016,04,26,00,37,3.60
2016,04,26,00,38,3.60
2016,04,26,00,39,3.60
2016,04,26,00,40,3.60
2016,04,26,00,41,3.60
2016,04,26,00,42,3.50
2016,04,26,00,43,3.50
2016,04,26,00,44,3.50
2016,04,26,00,45,3.50
2016,04,26,00,46,3.50
2016,04,26,00,47,3.50
2016,04,26,00,48,3.50
2016,04,26,00,49,3.50
2016,04,26,00,50,3.50
2016,04,26,00,51,3.40
2016,04,26,00,52,3.40
2016,04,26,00,53,3.40
2016,04,26,00,54,3.40
2016,04,26,00,55,3.40
2016,04,26,00,56,3.30
2016,04,26,00,57,3.30
2016,04,26,00,58,3.30
2016,04,26,00,59,3.30
2016,04,26,01,00,3.30
2016,04,26,01,01,3.30
2016,04,26,01,02,3.30
2016,04,26,01,03,3.30
2016,04,26,01,04,3.30
2016,04,26,01,05,3.30
2016,04,26,01,06,3.20
2016,04,26,01,07,3.20
2016,04,26,01,08,3.20
2016,04,26,01,09,3.20
2016,04,26,01,10,3.10
2016,04,26,01,11,3.10
2016,04,26,01,12,3.10
2016,04,26,01,13,3.10
2016,04,26,01,14,3.10
2016,04,26,01,15,3.10
2016,04,26,01,16,2.90
2016,04,26,01,17,2.90
2016,04,26,01,18,2.90
2016,04,26,01,19,2.90
2016,04,26,01,20,2.90
2016,04,26,01,21,2.90
2016,04,26,01,22,2.90
2016,04,26,01,23,2.90
2016,04,26,01,24,2.90
2016,04,26,01,25,2.90
2016,04,26,01,26,2.90
2016,04,26,01,27,2.80
2016,04,26,01,28,2.80
2016,04,26,01,29,2.80
2016,04,26,01,30,2.80
2016,04,26,01,31,2.80
2016,04,26,01,32,2.80
2016,04,26,01,33,2.80
2016,04,26,01,34,2.70
2016,04,26,01,35,2.70
2016,04,26,01,36,2.70
2016,04,26,01,37,2.70
2016,04,26,01,38,2.70
2016,04,26,01,39,2.70
2016,04,26,01,40,2.70
2016,04,26,01,41,2.70
2016,04,26,01,42,2.70
2016,04,26,01,43,2.70
2016,04,26,01,44,2.70
2016,04,26,01,45,2.70
2016,04,26,01,46,2.70
2016,04,26,01,47,2.70
2016,04,26,01,48,2.70
2016,04,26,01,49,2.70
2016,04,26,01,50,2.70
2016,04,26,01,51,2.70
2016,04,26,01,52,2.70
2016,04,26,01,53,2.70
2016,04,26,01,54,2.70
2016,04,26,01,55,2.70
2016,04,26,01,56,2.70
2016,04,26,01,57,2.70
2016,04,26,01,58,2.70
2016,04,26,01,59,2.70
2016,04,26,02,00,2.70
2016,04,26,02,01,2.70
2016,04,26,02,02,2.70
2016,04,26,02,03,2.70
2016,04,26,02,04,2.70
2016,04,26,02,05,2.70
2016,04,26,02,06,2.70
2016,04,26,02,07,2.70
2016,04,26,02,08,2.70
2016,04,26,02,09,2.70
2016,04,26,02,10,2.70
2016,04,26,02,11,2.70
2016,04,26,02,12,2.70
2016,04,26,02,13,2.70
2016,04,26,02,14,2.70
2016,04,26,02,15,2.70
2016,04,26,02,16,2.70
2016,04,26,02,17,2.70
2016,04,26,02,18,2.70
2016,04,26,02,19,2.70
2016,04,26,02,20,2.70
2016,04,26,02,21,2.70
2016,04,26,02,22,2.70
2016,04,26,02,23,2.70
2016,04,26,02,24,2.70
2016,04,26,02,25,2.70
2016,04,26,02,26,2.70
2016,04,26,02,27,2.70
2016,04,26,02,28,2.70
2016,04,26,02,29,2.70
2016,04,26,02,30,2.70
2016,04,26,02,31,2.70
2016,04,26,02,32,2.80
2016,04,26,02,33,2.80
2016,04,26,02,34,2.80
2016,04,26,02,35,2.80
2016,04,26,02,36,2.80
2016,04,26,02,37,2.90
2016,04,26,02,38,2.90
2016,04,26,02,39,2.90
2016,04,26,02,40,2.90
2016,04,26,02,41,2.90
2016,04,26,02,42,2.90
2016,04,26,02,43,2.90
2016,04,26,02,44,2.90
2016,04,26,02,45,2.90
2016,04,26,02,46,2.90
2016,04,26,02,47,2.90
2016,04,26,02,48,3.00
2016,04,26,02,49,3.00
2016,04,26,02,50,3.10
2016,04,26,02,51,3.10
2016,04,26,02,52,3.10
2016,04,26,02,53,3.10
2016,04,26,02,54,3.10
2016,04,26,02,55,3.10
2016,04,26,02,56,3.10
2016,04,26,02,57,3.10
2016,04,26,02,58,3.20
2016,04,26,02,59,3.20
2016,04,26,03,00,3.10
2016,04,26,03,01,3.10
2016,04,26,03,02,3.10
2016,04,26,03,03,3.10
2016,04,26,03,04,3.10
2016,04,26,03,05,3.10
2016,04,26,03,06,3.10
2016,04,26,03,07,3.10
2016,04,26,03,08,3.10
2016,04,26,03,09,3.00
2016,04,26,03,10,2.90
2016,04,26,03,11,2.90
2016,04,26,03,12,2.90
2016,04,26,03,13,2.80
2016,04,26,03,14,2.80
2016,04,26,03,15,2.70
2016,04,26,03,16,2.70
2016,04,26,03,17,2.70
2016,04,26,03,18,2.70
2016,04,26,03,19,2.70
2016,04,26,03,20,2.60
2016,04,26,03,21,2.60
2016,04,26,03,22,2.50
2016,04,26,03,23,2.50
2016,04,26,03,24,2.50
2016,04,26,03,25,2.50
2016,04,26,03,26,2.50
2016,04,26,03,27,2.50
2016,04,26,03,28,2.40
2016,04,26,03,29,2.40
2016,04,26,03,30,2.40
2016,04,26,03,31,2.40
2016,04,26,03,32,2.40
2016,04,26,03,33,2.40
2016,04,26,03,34,2.40
2016,04,26,03,35,2.40
2016,04,26,03,36,2.40
2016,04,26,03,37,2.40
2016,04,26,03,38,2.40
2016,04,26,03,39,2.40
2016,04,26,03,40,2.40
2016,04,26,03,41,2.40
2016,04,26,03,42,2.40
2016,04,26,03,43,2.30
2016,04,26,03,44,2.30
2016,04,26,03,45,2.30
2016,04,26,03,46,2.30
2016,04,26,03,47,2.20
2016,04,26,03,48,2.20
2016,04,26,03,49,2.20
2016,04,26,03,50,2.20
2016,04,26,03,51,2.20
2016,04,26,03,52,2.20
2016,04,26,03,53,2.20
2016,04,26,03,54,2.20
2016,04,26,03,55,2.20
2016,04,26,03,56,2.10
2016,04,26,03,57,2.10
2016,04,26,03,58,2.10
2016,04,26,03,59,2.10
2016,04,26,04,00,2.10
2016,04,26,04,01,2.10
2016,04,26,04,02,2.00
2016,04,26,04,03,2.00
2016,04,26,04,04,2.00
2016,04,26,04,05,2.00
2016,04,26,04,06,2.00
2016,04,26,04,07,2.00
2016,04,26,04,08,2.00
2016,04,26,04,09,2.00
2016,04,26,04,10,2.00
2016,04,26,04,11,2.00
2016,04,26,04,12,2.00
2016,04,26,04,13,2.00
2016,04,26,04,14,2.00
2016,04,26,04,15,2.00
2016,04,26,04,16,2.00
2016,04,26,04,17,2.00
2016,04,26,04,18,2.00
2016,04,26,04,19,2.00
2016,04,26,04,20,2.00
2016,04,26,04,21,2.00
2016,04,26,04,22,2.00
2016,04,26,04,23,2.00
2016,04,26,04,24,2.00
2016,04,26,04,25,2.00
2016,04,26,04,26,1.90
2016,04,26,04,27,1.90
2016,04,26,04,28,1.90
2016,04,26,04,29,1.90
2016,04,26,04,30,1.90
2016,04,26,04,31,1.90
2016,04,26,04,32,1.90
2016,04,26,04,33,1.90
2016,04,26,04,34,1.90
2016,04,26,04,35,1.90
2016,04,26,04,36,1.90
2016,04,26,04,37,1.90
2016,04,26,04,38,1.90
2016,04,26,04,39,1.90
2016,04,26,04,40,1.90
2016,04,26,04,41,1.90
2016,04,26,04,42,1.90
2016,04,26,04,43,1.90
2016,04,26,04,44,1.90
2016,04,26,04,45,1.90
2016,04,26,04,46,1.90
2016,04,26,04,47,1.90
2016,04,26,04,48,2.00
2016,04,26,04,49,2.00
2016,04,26,04,50,1.90
2016,04,26,04,51,2.00
2016,04,26,04,52,2.00
2016,04,26,04,53,2.00
2016,04,26,04,54,2.00
2016,04,26,04,55,2.00
2016,04,26,04,56,2.10
2016,04,26,04,57,2.10
2016,04,26,04,58,2.10
2016,04,26,04,59,2.20
2016,04,26,05,00,2.20
2016,04,26,05,01,2.20
2016,04,26,05,02,2.20
2016,04,26,05,03,2.20
2016,04,26,05,04,2.20
2016,04,26,05,05,2.20
2016,04,26,05,06,2.30
2016,04,26,05,07,2.30
2016,04,26,05,08,2.30
2016,04,26,05,09,2.30
2016,04,26,05,10,2.20
2016,04,26,05,11,2.20
2016,04,26,05,12,2.20
2016,04,26,05,13,2.20
2016,04,26,05,14,2.20
2016,04,26,05,15,2.20
2016,04,26,05,16,2.20
2016,04,26,05,17,2.20
2016,04,26,05,18,2.10
2016,04,26,05,19,2.10
2016,04,26,05,20,2.10
2016,04,26,05,21,2.00
2016,04,26,05,22,2.00
2016,04,26,05,23,2.00
2016,04,26,05,24,2.00
2016,04,26,05,25,1.90
2016,04,26,05,26,1.90
2016,04,26,05,27,1.90
2016,04,26,05,28,1.80
2016,04,26,05,29,1.80
2016,04,26,05,30,1.80
2016,04,26,05,31,1.80
2016,04,26,05,32,1.80
2016,04,26,05,33,1.80
2016,04,26,05,34,1.80
2016,04,26,05,35,1.70
2016,04,26,05,36,1.70
2016,04,26,05,37,1.70
2016,04,26,05,38,1.70
2016,04,26,05,39,1.70
2016,04,26,05,40,1.70
2016,04,26,05,41,1.60
2016,04,26,05,42,1.60
2016,04,26,05,43,1.60
2016,04,26,05,44,1.60
2016,04,26,05,45,1.60
2016,04,26,05,46,1.60
2016,04,26,05,47,1.60
2016,04,26,05,48,1.60
2016,04,26,05,49,1.60
2016,04,26,05,50,1.60
2016,04,26,05,51,1.60
2016,04,26,05,52,1.60
2016,04,26,05,53,1.60
2016,04,26,05,54,1.60
2016,04,26,05,55,1.60
2016,04,26,05,56,1.60
2016,04,26,05,57,1.60
2016,04,26,05,58,1.60
2016,04,26,05,59,1.60
2016,04,26,06,00,1.60
2016,04,26,06,01,1.60
2016,04,26,06,02,1.60
2016,04,26,06,03,1.60
2016,04,26,06,04,1.60
2016,04,26,06,05,1.60
2016,04,26,06,06,1.60
2016,04,26,06,07,1.60
2016,04,26,06,08,1.60
2016,04,26,06,09,1.60
2016,04,26,06,10,1.60
2016,04,26,06,11,1.60
2016,04,26,06,12,1.60
2016,04,26,06,13,1.50
2016,04,26,06,14,1.50
2016,04,26,06,15,1.50
2016,04,26,06,16,1.50
2016,04,26,06,17,1.50
2016,04,26,06,18,1.50
2016,04,26,06,19,1.50
2016,04,26,06,20,1.50
2016,04,26,06,21,1.50
2016,04,26,06,22,1.50
2016,04,26,06,23,1.50
2016,04,26,06,24,1.50
2016,04,26,06,25,1.50
2016,04,26,06,26,1.50
2016,04,26,06,27,1.50
2016,04,26,06,28,1.50
2016,04,26,06,29,1.50
2016,04,26,06,30,1.40
2016,04,26,06,31,1.40
2016,04,26,06,32,1.40
2016,04,26,06,33,1.40
2016,04,26,06,34,1.40
2016,04,26,06,35,1.40
2016,04,26,06,36,1.40
2016,04,26,06,37,1.40
2016,04,26,06,38,1.40
2016,04,26,06,39,1.40
2016,04,26,06,40,1.40
2016,04,26,06,41,1.40
2016,04,26,06,42,1.40
2016,04,26,06,43,1.40
2016,04,26,06,44,1.30
2016,04,26,06,45,1.30
2016,04,26,06,46,1.30
2016,04,26,06,47,1.30
2016,04,26,06,48,1.30
2016,04,26,06,49,1.30
2016,04,26,06,50,1.30
2016,04,26,06,51,1.30
2016,04,26,06,52,1.30
2016,04,26,06,53,1.30
2016,04,26,06,54,1.30
2016,04,26,06,55,1.30
2016,04,26,06,56,1.30
2016,04,26,06,57,1.30
2016,04,26,06,58,1.30
2016,04,26,06,59,1.30
2016,04,26,07,00,1.30
2016,04,26,07,01,1.30
2016,04,26,07,02,1.30
2016,04,26,07,03,1.30
2016,04,26,07,04,1.30
2016,04,26,07,05,1.30
2016,04,26,07,06,1.30
2016,04,26,07,07,1.30
2016,04,26,07,08,1.30
2016,04,26,07,09,1.30
2016,04,26,07,10,1.30
2016,04,26,07,11,1.30
2016,04,26,07,12,1.30
2016,04,26,07,13,1.40
2016,04,26,07,14,1.40
2016,04,26,07,15,1.40
2016,04,26,07,16,1.40
2016,04,26,07,17,1.40
2016,04,26,07,18,1.50
2016,04,26,07,19,1.50
2016,04,26,07,20,1.50
2016,04,26,07,21,1.50
2016,04,26,07,22,1.60
2016,04,26,07,23,1.60
2016,04,26,07,24,1.60
2016,04,26,07,25,1.70
2016,04,26,07,26,1.70
2016,04,26,07,27,1.80
2016,04,26,07,28,1.80
2016,04,26,07,29,1.80
2016,04,26,07,30,1.80
2016,04,26,07,31,1.90
2016,04,26,07,32,2.00
2016,04,26,07,33,2.00
2016,04,26,07,34,2.10
2016,04,26,07,35,2.10
2016,04,26,07,36,2.20
2016,04,26,07,37,2.20
2016,04,26,07,38,2.20
2016,04,26,07,39,2.20
2016,04,26,07,40,2.30
2016,04,26,07,41,2.40
2016,04,26,07,42,2.40
2016,04,26,07,43,2.50
2016,04,26,07,44,2.60
2016,04,26,07,45,2.60
2016,04,26,07,46,2.70
2016,04,26,07,47,2.70
2016,04,26,07,48,2.80
2016,04,26,07,49,2.90
2016,04,26,07,50,2.90
2016,04,26,07,51,3.00
2016,04,26,07,52,3.10
2016,04,26,07,53,3.10
2016,04,26,07,54,3.20
2016,04,26,07,55,3.30
2016,04,26,07,56,3.30
2016,04,26,07,57,3.40
2016,04,26,07,58,3.40
2016,04,26,07,59,3.50
2016,04,26,08,00,3.60
2016,04,26,08,01,3.70
2016,04,26,08,02,3.80
2016,04,26,08,03,3.80
2016,04,26,08,04,3.90
2016,04,26,08,05,4.00
2016,04,26,08,06,4.00
2016,04,26,08,07,4.00
2016,04,26,08,08,4.10
2016,04,26,08,09,4.20
2016,04,26,08,10,4.20
2016,04,26,08,11,4.20
2016,04,26,08,12,4.30
2016,04,26,08,13,4.40
2016,04,26,08,14,4.40
2016,04,26,08,15,4.50
2016,04,26,08,16,4.60
2016,04,26,08,17,4.60
2016,04,26,08,18,4.80
2016,04,26,08,19,4.90
2016,04,26,08,20,5.10
2016,04,26,08,21,5.30
2016,04,26,08,22,5.50
2016,04,26,08,23,5.60
2016,04,26,08,24,5.80
2016,04,26,08,25,6.00
2016,04,26,08,26,6.20
2016,04,26,08,27,6.30
2016,04,26,08,28,6.50
2016,04,26,08,29,6.60
2016,04,26,08,30,6.80
2016,04,26,08,31,6.90
2016,04,26,08,32,7.00
2016,04,26,08,33,7.10
2016,04,26,08,34,7.10
2016,04,26,08,35,7.30
2016,04,26,08,36,7.30
2016,04,26,08,37,7.40
2016,04,26,08,38,7.40
2016,04,26,08,39,7.40
2016,04,26,08,40,7.50
2016,04,26,08,41,7.50
2016,04,26,08,42,7.60
2016,04,26,08,43,7.70
2016,04,26,08,44,7.80
2016,04,26,08,45,7.80
2016,04,26,08,46,7.90
2016,04,26,08,47,8.00
2016,04,26,08,48,8.10
2016,04,26,08,49,8.20
2016,04,26,08,50,8.20
2016,04,26,08,51,8.30
2016,04,26,08,52,8.40
2016,04,26,08,53,8.40
2016,04,26,08,54,8.40
2016,04,26,08,55,8.50
2016,04,26,08,56,8.50
2016,04,26,08,57,8.60
2016,04,26,08,58,8.60
2016,04,26,08,59,8.70
2016,04,26,09,00,8.80
2016,04,26,09,01,8.80
2016,04,26,09,02,8.90
2016,04,26,09,03,8.90
2016,04,26,09,04,9.00
2016,04,26,09,05,9.00
2016,04,26,09,06,9.10
2016,04,26,09,07,9.10
2016,04,26,09,08,9.10
2016,04,26,09,09,9.10
2016,04,26,09,10,9.20
2016,04,26,09,11,9.20
2016,04,26,09,12,9.20
2016,04,26,09,13,9.20
2016,04,26,09,14,9.20
2016,04,26,09,15,9.20
2016,04,26,09,16,9.10
2016,04,26,09,17,9.10
2016,04,26,09,18,9.10
2016,04,26,09,19,9.20
2016,04,26,09,20,9.20
2016,04,26,09,21,9.20
2016,04,26,09,22,9.20
2016,04,26,09,23,9.20
2016,04,26,09,24,9.30
2016,04,26,09,25,9.30
2016,04,26,09,26,9.30
2016,04,26,09,27,9.40
2016,04,26,09,28,9.40
2016,04,26,09,29,9.30
2016,04,26,09,30,9.40
2016,04,26,09,31,9.40
2016,04,26,09,32,9.50
2016,04,26,09,33,9.60
2016,04,26,09,34,9.60
2016,04,26,09,35,9.70
2016,04,26,09,36,9.70
2016,04,26,09,37,9.70
2016,04,26,09,38,9.70
2016,04,26,09,39,9.70
2016,04,26,09,40,9.70
2016,04,26,09,41,9.70
2016,04,26,09,42,9.70
2016,04,26,09,43,9.70
2016,04,26,09,44,9.70
2016,04,26,09,45,9.80
2016,04,26,09,46,9.80
2016,04,26,09,47,9.90
2016,04,26,09,48,9.90
2016,04,26,09,49,9.90
2016,04,26,09,50,10.00
2016,04,26,09,51,10.10
2016,04,26,09,52,10.20
2016,04,26,09,53,10.20
2016,04,26,09,54,10.30
2016,04,26,09,55,10.40
2016,04,26,09,56,10.40
2016,04,26,09,57,10.60
2016,04,26,09,58,10.60
2016,04,26,09,59,10.60
2016,04,26,10,00,10.60
2016,04,26,10,01,10.70
2016,04,26,10,02,10.80
2016,04,26,10,03,10.90
2016,04,26,10,04,10.90
2016,04,26,10,05,10.90
2016,04,26,10,06,10.90
2016,04,26,10,07,10.90
2016,04,26,10,08,10.90
2016,04,26,10,09,10.90
2016,04,26,10,10,10.90
2016,04,26,10,11,10.90
2016,04,26,10,12,10.90
2016,04,26,10,13,10.90
2016,04,26,10,14,11.00
2016,04,26,10,15,11.10
2016,04,26,10,16,11.10
2016,04,26,10,17,11.20
2016,04,26,10,18,11.20
2016,04,26,10,19,11.20
2016,04,26,10,20,11.10
2016,04,26,10,21,11.10
2016,04,26,10,22,11.10
2016,04,26,10,23,11.10
2016,04,26,10,24,11.20
2016,04,26,10,25,11.30
2016,04,26,10,26,11.50
2016,04,26,10,27,11.60
2016,04,26,10,28,11.70
2016,04,26,10,29,11.70
2016,04,26,10,30,11.70
2016,04,26,10,31,11.80
2016,04,26,10,32,11.80
2016,04,26,10,33,11.80
2016,04,26,10,34,11.80
2016,04,26,10,35,11.90
2016,04,26,10,36,12.00
2016,04,26,10,37,12.00
2016,04,26,10,38,12.00
2016,04,26,10,39,12.10
2016,04,26,10,40,12.10
2016,04,26,10,41,12.10
2016,04,26,10,42,12.10
2016,04,26,10,43,12.00
2016,04,26,10,44,11.90
2016,04,26,10,45,11.80
2016,04,26,10,46,11.80
2016,04,26,10,47,11.80
2016,04,26,10,48,11.80
2016,04,26,10,49,11.80
2016,04,26,10,50,11.80
2016,04,26,10,51,11.70
2016,04,26,10,52,11.80
2016,04,26,10,53,11.80
2016,04,26,10,54,11.80
2016,04,26,10,55,11.70
2016,04,26,10,56,11.60
2016,04,26,10,57,11.70
2016,04,26,10,58,11.70
2016,04,26,10,59,11.70
2016,04,26,11,00,11.70
2016,04,26,11,01,11.70
2016,04,26,11,02,11.80
2016,04,26,11,03,11.80
2016,04,26,11,04,11.80
2016,04,26,11,05,11.70
2016,04,26,11,06,11.80
2016,04,26,11,07,11.80
2016,04,26,11,08,11.80
2016,04,26,11,09,11.80
2016,04,26,11,10,11.80
2016,04,26,11,11,11.80
2016,04,26,11,12,11.70
2016,04,26,11,13,11.80
2016,04,26,11,14,11.70
2016,04,26,11,15,11.60
2016,04,26,11,16,11.60
2016,04,26,11,17,11.60
2016,04,26,11,18,11.70
2016,04,26,11,19,11.70
2016,04,26,11,20,11.70
2016,04,26,11,21,11.80
2016,04,26,11,22,11.80
2016,04,26,11,23,11.90
2016,04,26,11,24,12.00
2016,04,26,11,25,12.00
2016,04,26,11,26,12.10
2016,04,26,11,27,12.30
2016,04,26,11,28,12.40
2016,04,26,11,29,12.50
2016,04,26,11,30,12.50
2016,04,26,11,31,12.60
2016,04,26,11,32,12.60
2016,04,26,11,33,12.60
2016,04,26,11,34,12.60
2016,04,26,11,35,12.70
2016,04,26,11,36,12.80
2016,04,26,11,37,12.90
2016,04,26,11,38,13.00
2016,04,26,11,39,12.80
2016,04,26,11,40,12.80
2016,04,26,11,41,12.70
2016,04,26,11,42,12.70
2016,04,26,11,43,12.60
2016,04,26,11,44,12.70
2016,04,26,11,45,12.70
2016,04,26,11,46,12.80
2016,04,26,11,47,12.80
2016,04,26,11,48,12.80
2016,04,26,11,49,12.80
2016,04,26,11,50,12.80
2016,04,26,11,51,12.80
2016,04,26,11,52,12.80
2016,04,26,11,53,12.80
2016,04,26,11,54,12.80
2016,04,26,11,55,12.70
2016,04,26,11,56,12.70
2016,04,26,11,57,12.70
2016,04,26,11,58,12.60
2016,04,26,11,59,12.60
2016,04,26,12,00,12.60
2016,04,26,12,01,12.60
2016,04,26,12,02,12.60
2016,04,26,12,03,12.60
2016,04,26,12,04,12.60
2016,04,26,12,05,12.50
2016,04,26,12,06,12.40
2016,04,26,12,07,12.30
2016,04,26,12,08,12.30
2016,04,26,12,09,12.30
2016,04,26,12,10,12.30
2016,04,26,12,11,12.20
2016,04,26,12,12,12.20
2016,04,26,12,13,12.20
2016,04,26,12,14,12.20
2016,04,26,12,15,12.20
2016,04,26,12,16,12.10
2016,04,26,12,17,12.10
2016,04,26,12,18,12.00
2016,04,26,12,19,12.00
2016,04,26,12,20,12.00
2016,04,26,12,21,12.00
2016,04,26,12,22,12.00
2016,04,26,12,23,12.00
2016,04,26,12,24,12.10
2016,04,26,12,25,12.10
2016,04,26,12,26,12.10
2016,04,26,12,27,12.20
2016,04,26,12,28,12.30
2016,04,26,12,29,12.40
2016,04,26,12,30,12.50
2016,04,26,12,31,12.60
2016,04,26,12,32,12.60
2016,04,26,12,33,12.70
2016,04,26,12,34,12.70
2016,04,26,12,35,12.60
2016,04,26,12,36,12.70
2016,04,26,12,37,12.70
2016,04,26,12,38,12.70
2016,04,26,12,39,12.70
2016,04,26,12,40,12.60
2016,04,26,12,41,12.60
2016,04,26,12,42,12.60
2016,04,26,12,43,12.60
2016,04,26,12,44,12.60
2016,04,26,12,45,12.60
2016,04,26,12,46,12.60
2016,04,26,12,47,12.60
2016,04,26,12,48,12.70
2016,04,26,12,49,12.80
2016,04,26,12,50,12.80
2016,04,26,12,51,12.80
2016,04,26,12,52,12.80
2016,04,26,12,53,12.80
2016,04,26,12,54,12.80
2016,04,26,12,55,12.80
2016,04,26,12,56,12.80
2016,04,26,12,57,12.80
2016,04,26,12,58,12.80
2016,04,26,12,59,12.80
2016,04,26,13,00,12.90
2016,04,26,13,01,13.00
2016,04,26,13,02,13.10
2016,04,26,13,03,13.10
2016,04,26,13,04,13.10
2016,04,26,13,05,13.20
2016,04,26,13,06,13.30
2016,04,26,13,07,13.40
2016,04,26,13,08,13.50
2016,04,26,13,09,13.60
2016,04,26,13,10,13.70
2016,04,26,13,11,13.70
2016,04,26,13,12,13.70
2016,04,26,13,13,13.60
2016,04,26,13,14,13.50
2016,04,26,13,15,13.40
2016,04,26,13,16,13.30
2016,04,26,13,17,13.30
2016,04,26,13,18,13.30
2016,04,26,13,19,13.30
2016,04,26,13,20,13.30
2016,04,26,13,21,13.40
2016,04,26,13,22,13.50
2016,04,26,13,23,13.60
2016,04,26,13,24,13.60
2016,04,26,13,25,13.70
2016,04,26,13,26,13.80
2016,04,26,13,27,13.80
2016,04,26,13,28,13.80
2016,04,26,13,29,13.90
2016,04,26,13,30,13.90
2016,04,26,13,31,13.90
2016,04,26,13,32,14.00
2016,04,26,13,33,14.10
2016,04,26,13,34,14.10
2016,04,26,13,35,14.10
2016,04,26,13,36,14.00
2016,04,26,13,37,14.00
2016,04,26,13,38,13.90
2016,04,26,13,39,13.90
2016,04,26,13,40,13.90
2016,04,26,13,41,13.80
2016,04,26,13,42,13.70
2016,04,26,13,43,13.60
2016,04,26,13,44,13.60
2016,04,26,13,45,13.50
2016,04,26,13,46,13.40
2016,04,26,13,47,13.40
2016,04,26,13,48,13.40
2016,04,26,13,49,13.50
2016,04,26,13,50,13.60
2016,04,26,13,51,13.60
2016,04,26,13,52,13.70
2016,04,26,13,53,13.80
2016,04,26,13,54,13.90
2016,04,26,13,55,13.90
2016,04,26,13,56,13.90
2016,04,26,13,57,13.90
2016,04,26,13,58,14.00
2016,04,26,13,59,14.00
2016,04,26,14,00,14.00
2016,04,26,14,01,14.00
2016,04,26,14,02,14.00
2016,04,26,14,03,13.90
2016,04,26,14,04,13.90
2016,04,26,14,05,13.90
2016,04,26,14,06,13.90
2016,04,26,14,07,13.80
2016,04,26,14,08,13.70
2016,04,26,14,09,13.70
2016,04,26,14,10,13.70
2016,04,26,14,11,13.70
2016,04,26,14,12,13.70
2016,04,26,14,13,13.60
2016,04,26,14,14,13.70
2016,04,26,14,15,13.80
2016,04,26,14,16,13.90
2016,04,26,14,17,13.90
2016,04,26,14,18,13.90
2016,04,26,14,19,13.90
2016,04,26,14,20,13.90
2016,04,26,14,21,13.90
2016,04,26,14,22,13.80
2016,04,26,14,23,13.70
2016,04,26,14,24,13.70
2016,04,26,14,25,13.70
2016,04,26,14,26,13.70
2016,04,26,14,27,13.60
2016,04,26,14,28,13.70
2016,04,26,14,29,13.60
2016,04,26,14,30,13.60
2016,04,26,14,31,13.60
2016,04,26,14,32,13.60
2016,04,26,14,33,13.60
2016,04,26,14,34,13.50
2016,04,26,14,35,13.50
2016,04,26,14,36,13.40
2016,04,26,14,37,13.40
2016,04,26,14,38,13.40
2016,04,26,14,39,13.30
2016,04,26,14,40,13.30
2016,04,26,14,41,13.30
2016,04,26,14,42,13.30
2016,04,26,14,43,13.30
2016,04,26,14,44,13.30
2016,04,26,14,45,13.20
2016,04,26,14,46,13.20
2016,04,26,14,47,13.20
2016,04,26,14,48,13.10
2016,04,26,14,49,13.10
2016,04,26,14,50,13.10
2016,04,26,14,51,13.10
2016,04,26,14,52,13.10
2016,04,26,14,53,13.00
2016,04,26,14,54,13.10
2016,04,26,14,55,13.20
2016,04,26,14,56,13.20
2016,04,26,14,57,13.30
2016,04,26,14,58,13.30
2016,04,26,14,59,13.30
2016,04,26,15,00,13.30
2016,04,26,15,01,13.30
2016,04,26,15,02,13.30
2016,04,26,15,03,13.30
2016,04,26,15,04,13.30
2016,04,26,15,05,13.30
2016,04,26,15,06,13.30
2016,04,26,15,07,13.20
2016,04,26,15,08,13.20
2016,04,26,15,09,13.20
2016,04,26,15,10,13.20
2016,04,26,15,11,13.20
2016,04,26,15,12,13.20
2016,04,26,15,13,13.20
2016,04,26,15,14,13.20
2016,04,26,15,15,13.30
2016,04,26,15,16,13.30
2016,04,26,15,17,13.40
2016,04,26,15,18,13.50
2016,04,26,15,19,13.60
2016,04,26,15,20,13.70
2016,04,26,15,21,13.70
2016,04,26,15,22,13.70
2016,04,26,15,23,13.70
2016,04,26,15,24,13.70
2016,04,26,15,25,13.60
2016,04,26,15,26,13.60
2016,04,26,15,27,13.50
2016,04,26,15,28,13.50
2016,04,26,15,29,13.40
2016,04,26,15,30,13.40
2016,04,26,15,31,13.30
2016,04,26,15,32,13.30
2016,04,26,15,33,13.30
2016,04,26,15,34,13.30
2016,04,26,15,35,13.30
2016,04,26,15,36,13.20
2016,04,26,15,37,13.20
2016,04,26,15,38,13.20
2016,04,26,15,39,13.20
2016,04,26,15,40,13.20
2016,04,26,15,41,13.20
2016,04,26,15,42,13.20
2016,04,26,15,43,13.20
2016,04,26,15,44,13.20
2016,04,26,15,45,13.20
2016,04,26,15,46,13.10
2016,04,26,15,47,13.10
2016,04,26,15,48,13.10
2016,04,26,15,49,13.00
2016,04,26,15,50,13.00
2016,04,26,15,51,13.00
2016,04,26,15,52,12.90
2016,04,26,15,53,12.90
2016,04,26,15,54,12.90
2016,04,26,15,55,12.90
2016,04,26,15,56,12.80
2016,04,26,15,57,12.80
2016,04,26,15,58,12.80
2016,04,26,15,59,12.80
2016,04,26,16,00,12.70
2016,04,26,16,01,12.70
2016,04,26,16,02,12.60
2016,04,26,16,03,12.50
2016,04,26,16,04,12.50
2016,04,26,16,05,12.40
2016,04,26,16,06,12.40
2016,04,26,16,07,12.30
2016,04,26,16,08,12.30
2016,04,26,16,09,12.30
2016,04,26,16,10,12.30
2016,04,26,16,11,12.20
2016,04,26,16,12,12.10
2016,04,26,16,13,12.10
2016,04,26,16,14,12.00
2016,04,26,16,15,12.00
2016,04,26,16,16,12.00
2016,04,26,16,17,12.00
2016,04,26,16,18,12.00
2016,04,26,16,19,12.00
2016,04,26,16,20,12.00
2016,04,26,16,21,12.00
2016,04,26,16,22,12.00
2016,04,26,16,23,12.00
2016,04,26,16,24,12.00
2016,04,26,16,25,12.00
2016,04,26,16,26,11.90
2016,04,26,16,27,11.90
2016,04,26,16,28,12.00
2016,04,26,16,29,11.90
2016,04,26,16,30,11.90
2016,04,26,16,31,11.90
2016,04,26,16,32,11.90
2016,04,26,16,33,11.80
2016,04,26,16,34,11.80
2016,04,26,16,35,11.80
2016,04,26,16,36,11.80
2016,04,26,16,37,11.80
2016,04,26,16,38,11.80
2016,04,26,16,39,11.80
2016,04,26,16,40,11.80
2016,04,26,16,41,11.80
2016,04,26,16,42,11.80
2016,04,26,16,43,11.80
2016,04,26,16,44,11.80
2016,04,26,16,45,11.70
2016,04,26,16,46,11.70
2016,04,26,16,47,11.70
2016,04,26,16,48,11.70
2016,04,26,16,49,11.70
2016,04,26,16,50,11.60
2016,04,26,16,51,11.60
2016,04,26,16,52,11.60
2016,04,26,16,53,11.60
2016,04,26,16,54,11.60
2016,04,26,16,55,11.60
2016,04,26,16,56,11.60
2016,04,26,16,57,11.60
2016,04,26,16,58,11.60
2016,04,26,16,59,11.60
2016,04,26,17,00,11.60
2016,04,26,17,01,11.60
2016,04,26,17,02,11.60
2016,04,26,17,03,11.60
2016,04,26,17,04,11.60
2016,04,26,17,05,11.60
2016,04,26,17,06,11.50
2016,04,26,17,07,11.40
2016,04,26,17,08,11.40
2016,04,26,17,09,11.40
2016,04,26,17,10,11.40
2016,04,26,17,11,11.40
2016,04,26,17,12,11.40
2016,04,26,17,13,11.40
2016,04,26,17,14,11.40
2016,04,26,17,15,11.40
2016,04,26,17,16,11.40
2016,04,26,17,17,11.40
2016,04,26,17,18,11.40
2016,04,26,17,19,11.40
2016,04,26,17,20,11.40
2016,04,26,17,21,11.40
2016,04,26,17,22,11.40
2016,04,26,17,23,11.40
2016,04,26,17,24,11.40
2016,04,26,17,25,11.40
2016,04,26,17,26,11.40
2016,04,26,17,27,11.40
2016,04,26,17,28,11.40
2016,04,26,17,29,11.40
2016,04,26,17,30,11.40
2016,04,26,17,31,11.40
2016,04,26,17,32,11.40
2016,04,26,17,33,11.40
2016,04,26,17,34,11.40
2016,04,26,17,35,11.40
2016,04,26,17,36,11.50
2016,04,26,17,37,11.50
2016,04,26,17,38,11.40
2016,04,26,17,39,11.40
2016,04,26,17,40,11.60
2016,04,26,17,41,11.60
2016,04,26,17,42,11.60
2016,04,26,17,43,11.60
2016,04,26,17,44,11.60
2016,04,26,17,45,11.60